Wind_Speed
102 103 104 105 106 107 108 108 108 107 107 106 106 105 104 104 103 102 102 101 100 100 99 99 99 98 98 98 99 99 99 99 99 99 99 99 99 99 99 99 98 98 98 98 98 98 98 98 99 99 99 99 99 99 99 98 98 97 97 95 93 91 87 83 79 75 71 68 67 65 65 65 65 65 65 65 66 67 67 68 68 69 69 68 68 67
104 105 106 107 108 109 109 109 108 107 106 105 105 104 103 102 102 101 101 100 100 99 99 99 99 99 99 99 99 99 99 100 100 100 100 100 100 100 100 100 100 99 99 99 99 99 99 99 99 99 99 99 99 99 98 98 97 96 95 93 90 87 83 79 74 71 69 67 66 65 65 65 65 65 66 66 67 67 68 69 69 69 69 69 69 68
105 106 107 107 108 108 108 107 106 105 104 104 103 103 102 102 101 101 101 101 100 100 100 100 100 100 100 101 101 101 101 101 101 101 101 101 101 101 101 101 101 101 100 100 100 100 99 99 99 99 99 99 99 98 98 97 96 94 92 89 86 82 78 74 71 69 67 66 65 65 65 65 65 66 66 66 67 68 69 69 70 70 70 70 69 68
105 105 106 106 106 106 106 105 105 104 104 103 103 103 103 103 103 103 103 103 103 103 103 103 103 103 103 103 103 103 103 103 103 102 102 102 102 102 102 102 101 101 101 100 100 100 100 99 99 99 99 99 98 97 97 95 94 91 88 85 81 77 74 71 69 67 66 65 65 65 65 65 66 66 66 67 67 68 69 70 70 71 71 70 70 68
105 105 106 106 106 106 106 106 106 106 105 105 105 105 105 106 106 106 106 106 106 106 106 106 106 106 106 106 106 105 105 104 104 104 103 103 103 103 102 102 102 101 101 100 100 100 99 99 99 99 98 98 97 96 95 93 90 87 84 80 77 74 71 69 67 66 66 65 65 65 65 65 66 66 67 67 68 69 69 70 71 71 71 71 70 69
107 107 107 107 108 108 108 109 109 109 109 109 109 109 109 110 110 110 110 110 110 109 109 109 109 108 108 108 108 107 106 106 105 104 104 103 103 103 102 102 101 101 100 100 100 99 99 99 99 98 97 96 95 94 92 89 86 83 80 76 73 71 69 68 67 66 66 65 65 65 65 66 66 67 67 68 68 69 70 70 71 71 71 71 70 69
110 110 110 110 111 111 112 112 113 113 113 113 114 114 114 114 114 113 113 113 113 112 111 111 110 110 109 109 108 107 107 106 105 104 104 103 103 102 102 101 101 101 100 100 99 99 98 98 97 96 95 94 93 91 88 85 82 79 76 73 71 70 68 68 67 66 66 65 65 65 66 66 66 67 68 68 69 69 70 70 71 71 71 71 70 69
113 113 113 114 114 115 115 116 116 116 117 117 117 117 116 116 115 115 114 114 113 112 112 111 110 109 109 108 108 107 106 105 104 103 103 102 102 101 101 101 100 100 99 99 98 98 97 96 95 94 93 91 90 87 85 82 79 76 73 71 70 69 69 68 67 67 66 66 66 66 66 66 67 67 68 69 69 70 70 71 71 71 71 71 70 69
115 115 116 116 116 117 117 117 117 117 117 117 117 117 116 116 115 114 113 112 112 111 110 109 108 108 107 107 106 105 104 103 102 102 101 101 100 100 100 99 99 98 98 97 97 96 95 94 93 91 90 88 86 83 81 78 76 74 72 71 70 70 69 69 68 68 67 67 67 67 67 67 68 68 69 69 69 70 70 71 71 71 71 71 70 69
114 115 115 115 115 115 115 116 115 115 115 115 114 114 113 112 112 111 110 109 109 108 107 106 105 105 104 104 103 103 102 101 100 100 99 99 99 98 98 98 97 97 96 95 95 94 93 91 90 88 86 84 82 80 78 76 74 73 72 71 71 70 70 69 69 69 68 68 68 68 68 68 68 69 69 69 70 70 70 71 71 71 72 71 70 69
111 111 111 111 111 111 111 111 111 110 110 110 109 109 108 108 107 107 106 106 105 104 103 103 102 101 101 101 100 100 99 99 98 98 97 97 96 96 96 95 95 94 94 93 92 91 90 88 87 85 83 81 79 78 76 75 74 73 72 72 72 71 71 71 70 70 69 69 69 69 69 69 69 69 69 70 70 70 71 71 71 71 71 71 70 69
106 106 106 106 105 105 105 105 104 104 104 104 103 103 103 103 102 102 101 101 100 100 99 99 98 98 98 97 97 97 96 96 96 95 95 94 94 93 93 92 92 91 91 90 89 87 86 85 83 82 80 79 77 76 75 75 74 74 73 73 73 72 72 72 71 71 71 70 70 70 70 69 69 69 69 70 70 70 71 71 71 71 71 71 70 69
100 100 100 100 99 99 99 98 98 98 98 97 97 98 98 98 97 97 96 96 96 95 95 95 95 94 94 94 94 94 93 93 92 92 91 91 91 90 90 89 89 88 87 86 85 84 83 82 80 79 78 77 77 76 76 75 75 75 74 74 74 74 73 73 73 72 72 72 71 71 71 70 70 70 70 70 70 70 70 71 71 71 71 71 70 69
95 95 95 94 94 94 93 93 93 93 92 92 92 92 93 93 93 92 92 92 92 92 91 91 91 91 90 90 90 90 90 89 89 88 88 87 87 86 86 85 85 84 84 83 82 81 80 79 79 78 78 77 77 77 76 76 76 76 76 75 75 75 75 74 74 73 73 73 73 72 72 71 71 71 71 70 70 70 70 71 71 71 71 70 69 68
91 91 90 90 90 90 89 89 89 89 89 88 88 89 89 89 89 89 89 89 89 88 88 88 87 87 87 87 87 87 86 86 86 85 85 84 83 83 82 82 82 81 81 80 80 80 79 78 78 78 78 78 78 78 78 77 77 77 77 77 76 76 76 75 75 75 75 74 74 74 73 73 72 72 71 71 71 71 71 71 71 70 70 70 69 68
89 89 88 88 88 88 87 87 87 87 87 87 86 86 86 87 87 86 86 87 86 86 85 85 85 85 85 84 84 84 84 83 83 83 82 81 81 80 79 79 79 79 79 79 79 79 79 79 79 79 79 79 79 79 79 79 78 78 78 78 78 77 77 77 76 76 76 76 75 75 74 74 73 73 72 72 72 71 71 71 71 70 70 69 69 67
90 89 89 88 88 87 87 87 87 87 87 86 86 86 86 86 86 86 86 86 85 85 84 84 84 84 84 83 83 83 82 82 82 81 81 80 80 79 78 78 78 78 78 78 79 79 79 80 80 80 80 80 80 80 80 80 80 79 79 79 79 79 79 78 78 77 77 77 76 76 76 75 74 74 73 73 72 72 72 71 71 70 70 69 68 67
91 91 91 90 90 89 89 89 89 88 88 88 88 88 87 87 87 86 86 86 86 85 85 84 84 84 83 84 84 83 83 82 82 81 81 80 80 79 79 78 79 79 79 79 80 80 80 81 81 81 82 82 82 82 81 81 81 81 81 81 81 80 80 80 79 79 78 78 78 77 77 76 75 75 74 74 73 73 72 72 71 71 70 69 68 66
94 94 93 93 93 92 92 92 91 91 91 91 91 90 90 90 89 89 88 88 87 87 86 86 86 85 85 85 85 85 84 84 83 83 82 82 81 81 80 80 80 80 81 81 81 81 82 82 83 83 83 83 83 83 83 82 82 82 82 82 82 82 81 81 81 80 80 79 79 78 78 77 77 76 75 74 74 73 73 72 72 71 70 69 68 66
97 97 96 96 96 96 95 95 94 94 94 94 93 93 93 92 92 91 91 91 90 89 89 88 88 87 87 87 87 87 86 86 85 85 84 84 83 83 83 82 82 83 83 83 83 83 83 84 84 84 84 85 84 84 84 84 84 83 83 83 83 83 83 82 82 81 81 80 80 79 79 78 78 77 76 75 74 74 73 73 72 71 70 69 68 66
100 100 99 99 99 99 98 98 97 97 97 97 96 96 96 95 95 95 94 94 93 92 92 91 91 90 90 90 89 89 88 88 88 88 87 86 86 86 85 85 85 85 85 85 85 85 85 85 86 86 86 86 86 85 85 85 85 85 85 84 84 84 84 84 83 83 82 82 81 81 80 79 78 78 77 76 75 74 74 73 72 71 70 69 67 66
103 103 102 102 102 102 101 101 101 100 100 100 99 99 99 98 98 98 98 97 96 96 95 94 93 93 92 92 92 92 91 90 90 90 89 89 89 88 88 87 87 87 87 87 87 87 87 87 87 88 87 87 87 86 86 86 86 86 86 86 85 85 85 85 84 84 83 83 82 82 81 80 79 78 77 76 75 75 74 73 73 72 71 69 67 65
106 105 105 105 105 105 105 104 104 103 103 103 102 102 101 101 101 101 101 100 99 99 98 97 96 96 95 95 94 94 94 93 93 92 92 92 92 91 90 90 89 89 89 89 89 89 89 89 89 89 89 88 88 88 87 87 87 87 87 87 87 86 86 86 86 85 84 84 83 83 82 81 80 79 78 77 76 75 74 74 73 72 71 69 67 65
109 108 108 108 108 108 108 107 107 106 106 106 105 105 105 104 104 104 103 103 102 101 101 100 99 99 98 97 97 97 96 96 95 95 95 94 94 93 93 92 92 91 91 91 91 90 90 91 90 90 90 90 89 89 88 88 88 88 88 88 88 88 87 87 87 86 86 85 84 84 83 82 81 80 79 77 76 75 75 74 73 72 71 69 67 65
112 111 111 110 110 110 110 110 110 109 109 108 108 108 108 108 107 107 106 105 105 104 103 103 102 101 101 100 99 99 99 98 98 97 97 97 96 96 95 94 94 93 93 93 92 92 92 92 92 92 91 91 90 90 90 89 89 89 89 89 89 89 88 88 88 87 87 86 85 84 84 83 82 80 79 78 77 76 75 74 73 72 71 69 67 65
115 114 114 113 113 113 113 113 112 112 111 111 111 111 111 111 111 110 109 108 107 107 106 105 105 104 103 103 102 102 102 101 100 100 99 99 98 98 97 97 96 95 95 95 94 94 94 94 93 93 93 92 92 91 91 90 90 90 90 90 90 90 89 89 89 88 87 87 86 85 84 83 82 81 80 78 77 76 75 74 73 72 70 69 67 65
118 117 117 116 116 116 116 115 115 115 114 114 113 113 113 114 114 114 113 111 110 109 109 109 108 107 106 105 105 105 104 104 103 103 102 101 101 100 100 99 98 97 97 96 96 95 95 95 95 94 94 93 93 92 92 91 91 91 91 91 91 90 90 90 89 89 88 87 87 86 85 84 83 81 80 79 77 76 75 74 73 72 70 68 66 64
122 121 120 120 120 119 119 119 118 118 117 117 116 116 116 116 117 117 116 114 113 112 112 111 111 110 109 108 108 107 107 106 106 105 104 103 103 103 102 101 100 99 99 98 98 97 97 96 96 95 95 95 94 94 93 93 92 92 92 91 91 91 91 91 90 89 89 88 87 87 86 84 83 82 80 79 77 76 75 74 73 72 70 68 66 64
125 125 124 124 123 123 122 122 121 121 120 120 119 119 119 119 119 119 118 117 116 115 115 114 113 112 111 111 110 110 110 109 109 108 107 106 105 105 104 103 102 101 101 100 99 99 98 98 97 97 96 96 95 95 94 94 93 93 93 92 92 92 92 91 91 90 89 89 88 87 86 85 83 82 80 79 78 76 75 74 73 71 70 68 66 64
128 127 127 126 126 125 125 124 124 124 123 123 122 122 121 121 120 120 120 119 118 118 118 117 116 114 114 113 112 112 112 112 111 110 109 109 108 108 106 105 104 103 102 102 101 101 100 100 99 98 97 97 96 96 95 95 94 94 93 93 93 93 92 92 91 91 90 89 88 88 86 85 84 82 80 79 77 76 75 74 72 71 69 68 66 64
129 129 129 128 128 127 126 126 126 125 125 124 124 124 123 122 122 121 120 120 120 119 119 118 117 116 115 114 114 114 114 114 113 112 111 111 110 110 108 107 106 105 104 103 102 102 102 101 100 99 98 98 97 97 96 95 95 95 94 94 94 93 93 92 92 91 90 90 89 88 87 85 84 82 80 79 78 76 75 74 72 71 69 67 65 64
129 129 129 129 128 128 127 127 126 126 126 125 125 125 124 123 122 122 121 121 120 120 120 119 119 118 117 116 115 115 115 115 115 114 113 113 112 111 110 109 108 107 106 105 104 103 103 102 101 100 99 99 98 98 97 96 96 95 95 95 94 94 93 93 92 91 91 90 89 88 87 85 84 82 80 79 78 76 75 73 72 70 69 67 65 63
128 128 128 128 127 127 127 127 126 126 126 125 125 125 124 123 123 122 121 120 120 120 120 120 119 119 118 117 116 116 115 116 116 115 115 115 114 113 111 110 110 109 108 106 105 105 104 103 102 102 101 100 99 99 98 97 97 96 96 95 95 94 94 93 92 92 91 90 89 88 86 85 83 82 80 79 77 76 75 73 72 70 68 66 65 63
125 125 125 125 125 125 125 125 125 125 125 124 124 123 123 122 122 121 120 120 120 120 120 120 120 119 118 117 117 116 116 116 116 116 116 116 115 114 113 112 111 110 109 108 107 106 105 104 103 103 102 101 100 99 99 98 97 97 96 96 95 95 94 94 93 92 91 90 89 88 86 85 83 81 80 79 77 76 75 73 71 69 68 66 64 62
121 121 121 121 121 121 121 121 122 122 122 122 121 121 120 120 120 119 119 118 118 118 119 119 119 119 118 117 117 116 116 116 117 117 117 116 116 115 113 113 112 111 110 109 108 107 106 105 104 104 103 102 101 100 99 99 98 97 97 96 96 95 95 94 93 92 91 90 89 87 86 84 83 81 80 78 77 76 74 73 71 69 67 65 63 61
116 116 115 115 116 116 116 117 117 118 118 118 118 117 117 117 116 116 116 116 116 116 117 117 117 117 117 117 116 116 116 116 116 117 117 116 116 115 114 113 112 111 110 110 109 108 107 106 105 104 104 103 102 101 100 99 98 98 97 97 96 95 95 94 93 92 91 90 89 87 85 84 82 81 79 78 77 75 74 72 70 68 67 65 62 60
110 110 109 109 110 110 110 111 111 112 113 113 113 113 112 112 112 112 112 112 112 112 113 114 115 115 115 115 114 115 115 115 116 116 116 116 115 114 114 113 112 111 110 110 109 108 107 106 106 105 104 103 103 102 101 100 99 98 98 97 96 96 95 94 93 92 91 89 88 86 85 83 82 80 79 77 76 75 73 72 70 68 66 64 61 59
104 104 103 103 103 104 104 105 105 106 107 108 108 108 108 107 107 107 107 107 107 108 109 110 111 111 112 112 112 112 113 113 114 115 115 115 114 113 113 112 111 111 110 109 109 108 107 107 106 105 104 104 103 102 101 100 100 99 98 97 96 95 95 94 93 92 90 89 87 86 84 82 81 80 78 77 76 74 73 71 69 67 65 63 60 58
99 98 98 98 98 98 99 99 100 100 101 102 103 103 103 103 102 102 102 102 103 103 104 105 106 107 107 108 108 109 110 111 112 113 113 113 112 112 111 111 111 110 109 109 108 108 107 107 106 105 104 104 103 102 101 100 100 99 98 97 96 95 95 94 92 91 90 88 86 85 83 81 80 79 78 76 75 74 72 70 68 66 64 62 59 57
94 93 93 92 93 93 94 94 95 95 96 97 97 98 98 98 98 98 97 97 98 98 99 100 101 102 103 103 104 106 107 108 109 110 110 110 110 110 110 110 110 109 109 108 107 107 107 106 106 105 104 104 103 102 101 100 100 99 98 97 97 96 94 93 92 90 89 87 85 84 82 81 79 78 77 76 74 73 71 69 67 65 62 60 58 56
90 89 88 88 88 88 89 89 90 90 91 92 93 93 94 94 93 93 93 93 93 94 94 94 95 96 98 99 100 102 103 104 105 106 107 107 107 107 108 108 108 108 107 107 107 106 106 105 105 104 104 103 102 102 101 100 99 98 97 97 96 95 93 92 91 89 88 86 84 83 81 80 79 77 76 75 73 71 69 68 66 63 61 59 56 54
86 85 84 84 84 84 85 85 86 86 87 88 88 89 89 89 89 89 89 89 89 89 89 89 90 92 93 94 95 97 98 100 101 102 103 104 104 105 105 105 105 105 106 106 105 105 104 104 104 103 103 102 101 101 100 99 98 97 97 96 95 94 93 91 90 88 87 85 83 81 80 79 78 77 75 74 72 70 68 66 64 62 60 57 55 53
82 81 81 80 80 80 80 81 82 82 83 83 84 84 84 85 85 85 85 85 85 85 85 85 85 87 88 90 91 92 94 95 96 97 99 100 101 101 102 102 103 103 103 104 104 103 103 102 102 102 101 100 100 100 99 99 98 97 96 95 94 93 92 91 89 87 85 84 82 80 79 78 77 75 74 72 71 69 66 64 62 60 58 56 54 52
78 78 77 77 76 76 77 77 78 78 79 79 80 80 80 80 81 81 82 82 81 81 80 80 81 82 84 86 87 88 89 90 92 93 94 96 97 97 98 99 99 100 100 101 101 101 101 100 100 100 99 98 98 98 98 97 97 96 95 93 92 92 91 90 88 85 84 82 80 79 78 77 75 74 73 71 69 67 65 63 60 58 56 54 52 50
74 74 74 73 73 73 73 73 74 74 75 75 76 76 76 76 77 77 78 78 77 77 76 76 77 79 81 82 82 83 84 86 87 88 90 91 93 93 94 95 96 97 97 98 98 98 98 98 98 97 96 96 96 96 96 96 95 94 93 92 91 90 89 87 86 84 83 81 79 78 77 75 74 73 71 69 67 65 63 61 58 56 54 52 50 49
70 70 70 70 70 70 70 70 70 71 71 72 72 72 72 72 73 73 74 74 73 73 73 73 74 76 77 77 78 79 80 82 83 84 86 87 88 89 90 91 92 93 94 95 95 95 95 95 95 95 94 94 94 94 94 94 93 93 92 90 89 88 87 86 84 82 81 79 78 77 75 74 72 71 69 67 65 63 61 58 56 54 52 51 49 48
66 66 67 66 66 66 66 66 67 67 67 68 68 68 68 68 69 69 70 70 70 69 69 70 71 72 73 73 73 75 76 78 79 80 81 82 84 85 86 87 88 89 90 91 91 92 92 92 92 91 92 92 93 92 92 91 91 91 90 89 88 87 86 84 82 80 79 77 76 75 73 72 70 69 67 65 63 60 58 56 54 52 51 49 48 47
63 63 63 63 63 63 63 63 63 63 64 64 64 64 65 65 65 66 66 66 66 66 66 67 67 68 68 69 70 71 72 73 75 76 77 78 79 80 82 83 84 85 86 87 87 88 88 88 88 88 89 90 90 90 90 89 89 89 88 87 86 85 84 82 80 78 77 76 74 73 71 70 68 66 64 62 60 58 56 54 52 51 49 48 47 46
60 60 60 60 60 60 60 60 60 60 60 60 61 61 61 61 62 62 63 63 63 63 63 63 63 64 64 65 66 67 68 70 71 72 73 74 75 76 77 79 80 81 82 83 84 84 84 85 85 85 86 86 87 88 88 87 87 86 85 85 84 82 81 79 78 76 75 73 72 70 68 67 65 63 61 59 58 56 54 52 51 49 48 47 46 45
57 57 57 57 57 56 56 56 56 57 57 57 57 58 58 58 58 59 59 59 59 59 59 59 59 60 61 62 63 64 65 66 67 68 69 70 71 72 73 75 76 77 78 79 80 80 81 82 82 82 82 83 84 85 85 85 84 83 83 82 80 79 78 76 75 74 72 71 69 67 65 64 62 60 58 57 55 54 52 51 49 48 47 46 45 44
54 54 54 54 54 53 53 53 53 53 54 54 54 54 55 55 55 55 55 56 56 56 56 56 56 57 58 59 60 61 61 62 63 64 65 66 67 68 70 71 72 73 74 75 76 77 77 78 79 79 79 80 80 81 82 82 81 81 80 78 77 75 74 74 72 71 69 68 66 64 62 61 59 57 56 54 53 52 50 49 48 47 46 45 44 43
Wind_Direction
278 278 279 279 280 280 280 281 281 281 281 281 281 281 281 281 282 282 282 282 282 282 283 283 283 284 284 284 285 285 285 286 286 287 287 287 288 288 288 289 289 290 290 291 291 291 292 292 293 293 293 293 293 294 294 294 295 296 297 297 298 298 298 298 298 298 297 297 297 297 298 299 301 302 304 306 308 309 311 311 312 313 313 314 314 314
277 278 278 278 279 279 280 280 280 280 280 280 280 280 280 280 280 281 281 281 281 282 282 282 283 283 283 284 284 285 285 286 286 287 287 287 288 288 289 289 290 290 291 291 291 291 292 292 292 292 292 292 292 293 293 294 295 295 296 297 297 297 297 297 297 296 296 296 297 298 299 301 302 304 306 308 309 310 311 312 313 313 313 313 313 314
278 278 278 279 279 279 279 279 279 279 279 279 280 280 280 280 280 280 280 281 281 281 282 282 283 283 283 284 284 284 285 285 286 286 287 287 288 288 288 289 289 290 290 290 290 290 290 290 290 291 291 291 292 292 293 293 294 295 295 296 296 296 296 296 296 296 296 296 297 299 300 302 303 305 307 309 310 311 312 312 313 313 313 313 313 313
279 279 279 279 279 279 279 279 279 279 279 279 280 280 280 280 280 280 281 281 281 282 282 282 283 283 283 283 284 284 284 285 285 285 286 286 287 287 287 288 288 288 289 289 289 289 289 289 289 290 290 291 291 292 292 293 293 294 294 295 295 295 295 294 294 295 296 296 298 299 301 302 304 306 308 309 310 311 312 312 312 313 313 313 313 313
279 279 279 279 279 279 279 279 279 279 279 279 279 280 280 280 280 280 281 281 281 281 282 282 282 282 283 283 283 283 283 284 284 284 285 285 286 286 286 286 287 287 287 287 288 288 288 288 289 289 290 290 291 291 292 292 293 293 293 293 294 293 293 293 294 295 295 297 298 300 301 303 305 306 308 309 310 311 312 312 312 312 312 312 313 313
278 278 278 278 278 278 278 278 278 278 279 279 279 279 279 280 280 280 280 280 281 281 281 281 281 282 282 282 282 282 283 283 283 284 284 284 285 285 285 285 286 286 286 286 287 287 287 288 288 289 289 289 290 290 291 291 292 292 292 292 292 292 292 293 293 294 295 297 298 300 302 303 305 307 308 309 310 311 311 312 312 312 312 312 312 312
277 277 277 277 277 277 277 278 278 278 278 278 278 278 279 279 279 279 280 280 280 280 280 280 280 280 281 281 281 281 282 282 282 283 283 283 284 284 284 284 285 285 285 286 286 286 287 287 288 288 288 289 289 290 290 291 291 291 291 291 291 291 292 292 293 294 296 297 299 300 302 304 305 307 308 309 310 310 311 311 311 311 311 312 312 312
277 277 277 277 277 277 277 277 277 277 278 278 278 278 278 279 279 279 279 279 279 279 279 280 280 280 280 280 280 280 281 281 281 282 282 282 283 283 283 284 284 284 285 285 285 286 286 286 287 287 288 288 289 289 289 290 290 290 290 290 291 291 292 292 293 295 296 297 299 301 302 304 305 307 308 309 310 310 311 311 311 311 311 311 312 312
276 276 276 276 276 276 276 276 277 277 277 277 278 278 278 278 278 278 279 279 279 279 279 279 279 279 279 279 279 280 280 280 280 281 281 281 282 282 282 283 283 283 284 284 285 285 285 286 286 287 287 287 288 288 288 289 289 289 289 290 290 291 292 293 294 295 296 298 299 301 303 304 305 307 308 309 309 310 311 311 311 311 311 311 311 311
276 276 276 276 276 276 276 276 276 276 277 277 277 277 277 277 277 278 278 278 278 278 278 278 278 278 278 278 279 279 279 279 280 280 280 280 281 281 282 282 282 283 283 283 284 284 285 285 286 286 286 287 287 287 288 288 288 289 289 290 290 291 292 293 294 295 297 298 300 301 303 304 305 306 307 308 309 310 310 311 311 311 311 311 311 311
276 276 276 276 276 276 276 276 276 276 276 276 276 276 276 276 276 276 277 277 277 277 277 277 277 277 277 278 278 278 278 279 279 279 279 280 280 280 281 281 282 282 282 283 283 284 284 284 285 285 286 286 286 286 287 287 288 288 289 290 290 291 292 293 294 296 297 298 300 301 302 304 305 306 307 308 309 310 310 311 311 311 311 311 311 311
276 276 276 276 276 276 276 276 276 276 276 276 276 276 276 276 276 276 276 276 276 276 276 276 276 276 277 277 277 277 278 278 278 279 279 279 279 280 280 280 281 281 282 282 282 283 283 284 284 284 285 285 285 286 286 287 287 288 289 290 290 291 292 293 295 296 297 298 300 301 302 303 304 306 307 308 309 310 310 311 311 311 311 311 311 311
276 276 276 276 275 275 275 275 275 275 275 275 275 275 275 275 275 275 275 275 275 275 276 276 276 276 276 276 276 277 277 277 278 278 278 278 279 279 279 280 280 281 281 281 282 282 283 283 283 284 284 285 285 285 286 286 287 288 289 289 290 291 292 293 295 296 297 298 299 301 302 303 304 306 307 308 309 309 310 310 311 311 311 311 310 310
275 275 275 275 275 275 275 275 275 275 275 275 275 275 275 275 275 275 275 275 275 275 275 275 275 275 276 276 276 276 277 277 277 277 277 278 278 278 279 279 279 280 280 281 281 282 282 282 283 283 284 284 284 285 285 286 287 288 288 289 290 291 292 293 295 296 297 298 300 301 302 303 304 306 307 308 309 309 310 310 310 310 310 310 310 310
274 274 274 274 274 274 274 274 274 274 274 274 274 274 274 274 275 275 275 275 275 275 275 275 275 275 275 276 276 276 276 276 276 277 277 277 277 277 278 278 279 279 280 280 281 281 282 282 282 283 283 283 284 284 285 286 287 288 288 289 290 291 292 294 295 296 297 298 300 301 302 303 304 306 307 308 308 309 310 310 310 310 310 310 310 309
274 273 273 273 273 273 273 273 273 273 273 273 273 273 274 274 274 274 274 274 274 275 275 275 275 275 275 275 276 276 276 276 276 276 276 277 277 277 278 278 278 279 279 280 280 281 281 281 282 282 283 283 283 284 285 286 287 288 288 289 290 291 293 294 295 296 297 298 300 301 302 303 305 306 307 307 308 309 309 310 310 310 310 309 309 309
274 274 274 273 273 273 273 273 273 273 273 273 273 273 273 273 273 273 273 274 274 274 274 275 275 275 275 275 275 275 275 275 276 276 276 276 277 277 277 278 278 278 279 279 280 280 280 281 281 282 282 283 283 284 285 286 287 288 288 289 290 292 293 294 295 296 297 298 300 301 302 303 304 305 306 307 308 309 309 309 309 309 309 309 309 308
275 275 274 274 274 273 273 273 273 273 273 273 272 272 272 272 272 272 273 273 273 273 274 274 274 274 274 275 275 275 275 275 275 276 276 276 277 277 277 277 277 278 278 278 279 279 280 280 281 281 282 282 283 284 285 286 287 288 289 290 291 292 293 294 295 296 297 298 300 301 302 303 304 305 306 307 308 308 309 309 309 309 309 309 308 308
275 275 275 274 274 274 274 273 273 273 273 273 273 273 273 273 273 273 272 272 273 273 273 273 273 273 273 274 274 274 275 275 275 275 275 276 276 277 277 277 277 277 277 278 278 279 279 280 280 281 281 282 283 284 285 286 287 288 289 290 291 292 293 294 295 296 297 298 299 300 302 303 304 305 306 306 307 308 308 309 309 309 308 308 308 307
275 275 274 274 274 274 274 274 274 273 273 273 273 273 273 273 273 273 273 273 273 272 272 272 272 273 273 273 273 274 274 275 275 275 275 275 275 276 276 276 276 276 277 277 278 278 279 279 280 281 281 282 283 284 285 286 287 288 289 290 291 292 293 294 295 296 297 298 299 300 301 302 303 304 305 306 307 307 308 308 308 308 308 307 307 306
275 275 275 275 274 274 274 274 274 274 274 274 273 273 273 273 273 273 273 273 273 273 273 272 272 272 273 273 273 274 274 274 274 274 275 275 275 275 275 276 276 276 276 277 277 278 278 279 280 280 281 282 283 284 285 286 286 287 288 289 290 291 292 293 294 295 296 297 298 299 300 301 302 303 304 305 306 307 307 307 307 307 307 307 306 306
275 275 275 275 274 274 274 274 274 274 274 274 273 273 273 273 273 273 273 273 273 273 273 273 273 273 273 273 273 274 274 274 274 274 274 274 274 275 275 275 276 276 276 277 277 278 278 279 279 280 281 282 283 284 284 285 286 287 288 289 290 290 291 292 293 294 296 297 298 299 300 301 302 303 304 304 305 306 306 307 307 307 306 306 306 305
275 275 275 275 275 275 274 274 274 274 274 274 274 274 274 273 273 273 273 273 273 273 273 274 274 274 274 274 274 274 274 274 274 274 274 274 274 275 275 275 276 276 276 277 277 278 278 279 279 280 281 282 282 283 284 285 286 286 287 288 289 290 291 292 293 294 295 296 297 298 299 300 301 302 303 304 304 305 305 306 306 306 306 305 305 304
276 276 275 275 275 275 275 275 275 275 275 274 274 274 274 274 274 274 274 274 274 274 274 274 274 274 274 274 274 274 274 274 274 274 274 274 274 275 275 275 276 276 276 277 277 278 278 278 279 280 280 281 282 283 283 284 285 286 286 287 288 289 290 291 292 293 294 295 296 297 298 299 300 301 302 303 304 304 305 305 305 305 305 304 304 303
277 276 276 276 276 275 275 275 275 275 275 275 275 275 275 274 274 274 274 274 274 274 274 274 274 274 274 274 274 274 274 274 274 274 274 274 275 275 275 275 275 276 276 276 277 277 278 278 279 279 280 281 281 282 283 283 284 285 286 286 287 288 289 290 291 292 293 294 295 296 297 298 299 300 301 302 303 303 304 304 304 304 304 303 303 302
278 277 277 277 276 276 276 276 276 275 275 275 275 275 275 275 275 274 274 274 274 274 274 274 274 274 274 274 274 274 274 274 274 274 274 274 274 275 275 275 275 275 276 276 276 277 277 277 278 279 279 280 281 281 282 283 283 284 285 285 286 287 288 289 290 291 292 293 294 295 296 297 298 299 300 301 302 302 303 303 303 303 303 302 302 301
278 278 278 278 277 277 277 276 276 276 276 275 275 275 274 274 274 274 274 274 275 275 274 274 274 274 274 274 274 274 274 274 274 274 274 274 274 274 274 275 275 275 275 275 276 276 276 277 277 278 279 279 280 281 281 282 282 283 284 285 285 286 287 288 289 290 291 292 293 294 295 296 297 298 299 300 301 302 302 302 302 302 302 301 301 300
279 278 278 278 278 277 277 277 276 276 276 275 275 275 274 274 274 274 274 274 274 274 274 274 274 274 274 274 274 274 274 274 273 274 274 273 273 273 274 274 274 274 274 274 275 275 276 276 277 277 278 278 279 280 280 281 282 282 283 284 285 285 286 287 288 289 290 291 292 293 294 295 296 297 298 299 300 301 301 301 301 301 301 300 300 299
278 278 278 278 277 277 277 277 276 276 276 275 275 274 274 273 273 273 274 274 274 273 273 273 273 273 273 273 273 273 273 273 273 273 273 273 273 273 273 273 273 273 273 274 274 274 275 275 276 276 277 278 278 279 280 280 281 282 282 283 284 285 285 286 287 289 290 291 292 292 293 294 295 296 297 298 299 300 300 300 300 300 300 299 299 298
278 278 278 277 277 277 276 276 276 275 275 275 274 274 273 273 273 273 273 273 273 272 272 272 272 272 272 272 272 272 272 272 272 272 272 272 272 272 272 272 272 272 273 273 273 274 274 275 275 276 276 277 277 278 279 279 280 281 281 282 283 284 285 286 287 288 289 290 291 291 293 294 295 296 297 297 298 299 299 299 299 299 299 298 298 297
277 277 277 277 276 276 276 275 275 275 274 274 274 273 273 273 272 272 272 272 272 271 271 271 271 271 271 271 271 270 271 271 271 271 271 271 271 271 272 272 272 272 272 272 272 273 273 274 275 275 276 276 277 277 278 278 279 280 280 281 282 283 284 285 286 287 288 289 290 291 292 293 294 295 296 296 297 298 298 298 298 298 297 297 296 296
276 276 276 276 276 276 275 275 274 274 274 273 273 272 272 272 272 271 271 271 270 270 270 270 270 270 270 270 269 269 269 270 270 270 270 270 270 271 271 271 271 271 272 272 272 272 272 273 274 274 275 275 276 276 277 278 278 279 280 280 281 282 283 284 285 286 287 288 289 290 291 292 293 294 295 295 296 296 297 297 296 296 296 296 295 294
276 276 276 275 275 275 275 274 274 273 273 273 272 272 271 271 271 270 270 270 269 269 269 269 269 269 269 268 268 268 268 268 269 269 269 269 269 270 270 270 270 270 271 271 271 271 272 272 273 274 274 274 275 276 276 277 277 278 279 280 280 281 282 283 284 285 286 287 288 289 290 291 292 293 294 294 295 295 295 295 295 295 295 294 294 293
276 275 275 275 275 274 274 274 273 273 273 272 272 271 271 270 270 270 269 269 268 268 268 268 267 267 267 267 267 267 267 267 267 267 268 268 268 268 269 269 269 269 270 270 270 271 271 272 272 273 273 274 274 275 275 276 277 277 278 279 280 280 281 282 283 284 285 286 287 288 289 290 291 292 293 293 294 294 294 294 294 294 293 293 292 291
276 275 275 275 274 274 274 273 273 272 272 272 271 271 270 270 269 269 268 268 267 267 266 266 266 266 266 266 266 265 265 265 266 266 266 267 267 267 268 268 268 269 269 269 270 270 270 271 271 272 272 273 273 274 275 275 276 277 277 278 279 280 280 281 282 283 284 285 286 287 288 289 290 291 291 292 292 293 293 293 292 292 292 291 291 290
276 275 275 274 274 273 273 272 272 272 271 271 271 270 270 269 269 268 268 267 266 266 265 265 265 265 265 264 264 264 264 264 265 265 265 265 266 266 267 267 267 268 268 268 269 269 269 270 270 271 271 272 273 273 274 275 275 276 276 277 278 279 280 280 281 282 283 284 285 286 287 288 289 290 290 291 291 291 291 291 291 291 290 290 289 288
275 275 274 274 273 273 272 272 271 271 270 270 270 270 269 268 268 267 267 266 265 265 264 264 264 264 263 263 263 263 263 263 263 263 264 264 265 265 265 266 266 267 267 267 268 268 268 269 269 270 270 271 271 272 273 274 274 275 275 276 277 278 279 280 281 281 282 283 284 285 286 287 288 289 289 290 290 290 290 290 290 289 289 288 287 286
275 274 274 273 272 272 271 271 270 270 269 269 269 268 268 268 267 266 266 265 265 264 263 263 263 263 262 262 262 262 262 262 262 262 263 263 264 264 264 265 265 265 266 266 266 267 267 268 268 269 269 270 271 271 272 273 273 274 275 276 276 277 278 279 280 281 281 282 283 284 285 286 287 287 288 288 288 288 288 288 288 288 287 286 285 284
274 274 273 272 272 271 270 270 269 269 268 268 268 267 267 267 266 266 265 264 264 263 263 262 262 262 261 261 261 261 261 261 261 261 261 262 262 263 263 263 264 264 265 265 265 266 266 267 267 268 268 269 270 270 271 272 272 273 274 275 275 276 277 278 279 280 281 281 282 283 284 285 286 286 286 287 287 287 287 287 287 286 286 285 283 281
274 273 273 272 271 270 269 269 268 268 267 267 266 266 266 266 265 265 264 264 263 262 262 261 261 261 260 260 260 260 260 259 260 260 260 261 261 261 262 262 262 263 263 264 264 264 265 265 266 267 267 268 268 269 270 270 271 272 273 274 274 275 276 277 278 279 280 281 281 282 283 284 284 285 285 285 285 285 286 285 285 285 284 282 281 279
274 273 272 271 271 270 269 268 268 267 266 266 266 265 265 265 265 264 264 263 262 262 261 260 260 260 259 259 259 258 258 258 258 258 259 259 259 260 260 260 261 261 262 262 263 263 264 264 265 265 266 267 267 268 269 269 270 271 272 273 273 274 275 276 277 278 279 279 280 281 282 282 283 283 284 284 284 284 284 284 283 283 281 280 278 276
274 273 272 271 270 269 269 268 267 267 266 266 265 265 264 264 264 264 263 263 262 261 261 260 259 259 258 258 258 257 257 257 257 257 257 258 258 258 259 259 259 260 260 261 261 262 262 263 263 264 265 265 266 267 268 268 269 270 271 271 272 273 274 275 276 277 277 278 279 280 281 281 282 282 282 282 282 282 282 282 281 280 279 277 275 273
273 273 272 271 270 269 268 268 267 266 266 265 265 264 264 264 264 263 263 262 262 261 260 260 259 258 257 257 257 256 256 256 256 256 256 256 257 257 257 258 258 258 259 259 260 260 261 262 262 263 263 264 265 266 266 267 268 269 270 270 271 272 273 274 275 275 276 277 278 279 279 280 280 280 281 281 281 281 280 280 279 277 276 274 272 270
273 272 272 271 270 269 268 267 267 266 266 265 265 264 264 263 263 263 262 262 261 261 260 259 258 257 257 256 256 255 255 255 255 255 255 255 255 255 256 256 257 257 257 258 258 259 260 260 261 261 262 263 264 264 265 266 267 268 269 269 270 271 272 273 274 274 275 276 277 277 278 278 279 279 279 279 279 278 278 277 276 274 273 270 268 266
273 272 271 271 270 269 268 267 266 266 265 265 264 264 263 263 262 262 262 261 261 260 259 258 257 256 256 255 255 255 254 254 254 254 254 254 254 254 254 255 255 256 256 256 257 258 258 259 260 260 261 262 262 263 264 265 266 267 268 268 269 270 271 271 272 273 274 275 276 276 276 277 277 277 277 277 277 276 275 274 273 271 269 267 265 263
272 272 271 270 269 268 267 267 266 265 265 264 264 263 263 262 262 261 261 261 260 260 259 258 257 256 255 255 254 254 253 253 253 253 252 252 253 253 253 253 254 254 255 255 256 256 257 258 258 259 260 261 261 262 263 264 265 266 266 267 268 269 269 270 271 272 273 274 274 275 275 275 275 275 275 275 274 274 273 271 270 268 266 264 262 260
272 271 270 269 269 268 267 266 265 265 264 264 263 263 262 262 261 261 260 260 260 259 258 257 256 255 255 254 254 253 253 252 252 252 252 251 252 252 252 252 252 253 253 254 255 255 256 256 257 258 259 259 260 261 262 262 263 264 265 266 267 267 268 269 270 271 271 272 273 273 273 273 273 273 273 273 272 271 270 268 266 264 262 260 259 257
272 271 270 269 268 267 266 266 265 264 264 263 263 262 262 261 260 260 260 259 259 258 257 256 256 255 254 254 253 252 252 251 251 251 251 250 250 250 251 251 251 252 252 253 253 254 255 255 256 257 257 258 259 260 260 261 262 263 264 264 265 266 267 268 269 269 270 270 271 271 271 271 271 271 271 270 269 268 266 264 262 261 259 257 255 253
271 271 270 269 268 267 266 265 265 264 263 263 262 261 261 260 260 259 259 258 258 257 257 256 255 255 254 253 252 252 251 250 250 250 249 249 249 249 249 249 250 250 251 251 252 253 253 254 254 255 256 256 257 258 259 260 260 261 262 263 264 265 266 266 267 268 268 268 269 269 269 269 269 268 268 267 266 264 263 261 259 257 255 253 252 250
272 271 270 269 268 267 266 265 264 263 263 262 261 261 260 259 259 258 258 258 257 257 256 255 255 254 253 252 251 250 250 249 249 248 248 248 248 248 248 248 248 249 249 250 250 251 252 252 253 253 254 255 255 256 257 258 259 260 260 261 262 263 264 265 265 266 266 266 266 266 266 266 266 265 264 263 262 260 259 257 255 253 251 250 248 247
272 271 270 269 268 267 266 265 264 263 262 261 261 260 259 259 258 258 257 257 256 256 255 254 253 252 251 250 250 249 248 248 248 247 247 246 246 246 246 246 247 247 247 248 248 249 250 250 251 252 252 253 253 254 255 256 257 258 259 260 261 261 262 263 263 263 264 264 264 264 264 263 263 262 260 259 258 256 255 253 251 249 248 246 245 245
Height
10533 10531 10529 10528 10526 10525 10523 10522 10522 10522 10520 10519 10520 10520 10520 10520 10519 10518 10518 10518 10517 10517 10516 10516 10516 10516 10516 10515 10515 10515 10515 10514 10514 10513 10513 10512 10510 10510 10508 10507 10507 10507 10506 10505 10504 10503 10502 10501 10500 10499 10498 10497 10497 10495 10495 10494 10493 10493 10492 10492 10490 10489 10488 10487 10485 10484 10483 10482 10481 10480 10479 10477 10476 10474 10472 10470 10468 10467 10464 10462 10460 10458 10456 10454 10452 10450
10525 10524 10523 10521 10519 10517 10515 10514 10515 10515 10513 10512 10511 10512 10512 10512 10512 10511 10510 10510 10510 10509 10509 10508 10508 10508 10508 10508 10507 10507 10507 10507 10506 10506 10505 10504 10503 10502 10501 10500 10500 10499 10498 10498 10498 10497 10495 10495 10493 10493 10492 10491 10490 10489 10488 10488 10487 10487 10487 10486 10485 10483 10482 10481 10480 10479 10478 10477 10476 10475 10473 10472 10470 10468 10467 10465 10463 10461 10459 10457 10455 10453 10452 10450 10448 10446
10517 10516 10514 10512 10511 10510 10508 10507 10506 10507 10506 10505 10503 10503 10503 10503 10503 10503 10502 10502 10502 10502 10501 10501 10501 10501 10500 10500 10500 10500 10500 10499 10499 10498 10498 10497 10496 10495 10494 10493 10493 10492 10492 10492 10491 10490 10489 10488 10487 10487 10486 10485 10484 10483 10482 10482 10482 10481 10481 10480 10479 10478 10477 10476 10475 10474 10473 10472 10471 10470 10468 10467 10465 10463 10462 10460 10458 10457 10454 10452 10450 10448 10447 10445 10443 10442
10509 10507 10505 10503 10502 10502 10499 10498 10498 10498 10497 10497 10496 10495 10495 10495 10495 10494 10494 10494 10494 10493 10493 10493 10493 10493 10492 10492 10492 10492 10492 10492 10492 10491 10490 10490 10489 10488 10488 10487 10487 10486 10486 10485 10485 10483 10483 10482 10481 10480 10479 10478 10478 10477 10477 10476 10476 10475 10475 10475 10474 10473 10472 10471 10470 10469 10468 10467 10466 10465 10463 10462 10460 10458 10457 10455 10453 10452 10450 10448 10446 10444 10442 10440 10439 10437
10500 10498 10497 10495 10494 10493 10490 10490 10489 10489 10488 10488 10488 10488 10487 10487 10486 10485 10485 10486 10486 10485 10485 10485 10485 10485 10484 10484 10483 10484 10484 10484 10484 10484 10483 10483 10482 10482 10481 10480 10480 10480 10479 10478 10478 10477 10476 10475 10474 10473 10473 10472 10472 10471 10470 10470 10470 10470 10470 10469 10468 10467 10467 10466 10465 10465 10463 10462 10462 10460 10458 10458 10456 10453 10452 10450 10449 10447 10445 10443 10442 10440 10438 10436 10435 10433
10490 10490 10488 10487 10486 10484 10482 10481 10480 10480 10480 10480 10479 10479 10479 10478 10478 10477 10477 10477 10477 10477 10477 10477 10477 10477 10477 10476 10476 10476 10477 10477 10477 10477 10476 10476 10475 10475 10474 10473 10473 10472 10472 10471 10470 10470 10469 10468 10468 10467 10466 10465 10465 10465 10464 10464 10464 10463 10463 10463 10463 10462 10461 10460 10460 10460 10459 10458 10457 10455 10453 10453 10451 10449 10447 10445 10444 10443 10441 10439 10437 10435 10433 10432 10430 10428
10480 10480 10479 10478 10477 10475 10474 10473 10472 10470 10470 10470 10470 10470 10470 10470 10470 10469 10468 10468 10468 10468 10468 10468 10468 10468 10468 10468 10467 10468 10468 10469 10469 10469 10469 10468 10468 10467 10467 10466 10465 10465 10464 10464 10463 10463 10462 10462 10461 10460 10460 10459 10458 10458 10458 10458 10458 10458 10458 10457 10457 10457 10456 10455 10455 10455 10454 10453 10452 10450 10449 10448 10446 10445 10443 10441 10440 10438 10437 10435 10433 10431 10429 10427 10426 10424
10469 10468 10468 10468 10467 10466 10465 10463 10463 10462 10461 10461 10460 10460 10460 10460 10460 10460 10460 10460 10460 10460 10460 10459 10459 10459 10460 10459 10460 10460 10460 10461 10462 10462 10462 10461 10461 10460 10459 10458 10458 10458 10457 10457 10456 10455 10455 10455 10454 10453 10453 10453 10452 10452 10452 10452 10452 10452 10452 10452 10451 10451 10450 10450 10450 10449 10448 10448 10447 10446 10444 10443 10441 10440 10438 10437 10435 10433 10432 10430 10428 10427 10425 10423 10421 10420
10458 10458 10457 10457 10457 10457 10455 10454 10453 10452 10452 10452 10451 10451 10451 10451 10451 10450 10450 10450 10450 10450 10450 10450 10450 10450 10450 10451 10452 10452 10452 10453 10454 10454 10454 10454 10453 10453 10452 10452 10451 10450 10450 10450 10449 10448 10448 10448 10447 10447 10447 10447 10446 10445 10445 10445 10445 10445 10445 10445 10445 10445 10445 10444 10444 10443 10443 10443 10442 10440 10439 10438 10437 10435 10433 10432 10430 10429 10427 10425 10424 10422 10420 10418 10417 10415
10448 10448 10447 10447 10447 10447 10447 10445 10443 10443 10443 10443 10442 10442 10442 10442 10442 10441 10441 10440 10440 10441 10442 10442 10442 10442 10442 10442 10443 10444 10445 10445 10446 10447 10447 10447 10446 10445 10445 10444 10443 10443 10443 10442 10442 10442 10442 10441 10441 10441 10440 10440 10440 10439 10439 10439 10439 10439 10439 10439 10439 10439 10438 10438 10438 10438 10438 10437 10437 10435 10435 10433 10432 10430 10429 10427 10426 10424 10423 10421 10419 10417 10415 10413 10412 10410
10437 10437 10437 10437 10437 10437 10437 10436 10435 10434 10434 10433 10432 10432 10432 10433 10433 10432 10432 10431 10431 10432 10432 10433 10433 10433 10433 10433 10434 10435 10437 10437 10438 10438 10439 10439 10439 10438 10438 10437 10437 10436 10436 10435 10435 10435 10435 10435 10435 10434 10434 10433 10433 10433 10433 10433 10433 10433 10433 10433 10433 10433 10433 10433 10432 10432 10432 10432 10431 10430 10430 10428 10427 10426 10425 10423 10422 10420 10418 10417 10415 10413 10410 10408 10407 10405
10427 10427 10427 10427 10427 10427 10427 10427 10426 10426 10425 10425 10423 10423 10422 10422 10423 10423 10423 10423 10423 10423 10424 10424 10425 10425 10426 10426 10426 10427 10428 10429 10430 10430 10431 10432 10432 10432 10431 10430 10430 10429 10429 10429 10429 10428 10428 10428 10428 10428 10428 10427 10427 10427 10427 10427 10427 10427 10427 10427 10427 10427 10427 10427 10427 10427 10426 10426 10425 10425 10425 10424 10423 10422 10421 10419 10418 10416 10414 10412 10410 10408 10406 10404 10403 10401
10418 10418 10418 10418 10418 10418 10418 10418 10418 10417 10417 10417 10415 10414 10413 10413 10413 10415 10415 10415 10415 10415 10416 10416 10416 10417 10417 10418 10418 10419 10420 10421 10422 10423 10423 10424 10424 10424 10424 10423 10423 10422 10422 10422 10422 10422 10422 10422 10422 10421 10421 10420 10420 10420 10420 10420 10420 10421 10421 10421 10421 10421 10422 10422 10421 10421 10420 10420 10420 10420 10419 10418 10418 10417 10416 10415 10413 10412 10410 10408 10406 10404 10402 10400 10398 10397
10410 10410 10410 10410 10410 10410 10410 10410 10410 10409 10408 10408 10407 10407 10405 10405 10406 10406 10406 10406 10407 10407 10408 10408 10408 10408 10409 10410 10411 10412 10412 10413 10413 10415 10416 10416 10417 10417 10418 10417 10416 10416 10416 10416 10415 10415 10415 10415 10415 10415 10415 10414 10414 10413 10414 10414 10415 10415 10415 10415 10415 10415 10415 10415 10415 10415 10415 10414 10414 10413 10413 10413 10412 10412 10411 10410 10408 10407 10405 10404 10402 10400 10398 10396 10395 10393
10402 10402 10402 10402 10402 10402 10402 10402 10402 10401 10400 10400 10400 10399 10398 10398 10398 10398 10398 10398 10398 10399 10401 10401 10401 10401 10402 10403 10403 10404 10405 10405 10406 10407 10408 10408 10409 10410 10412 10411 10410 10410 10410 10410 10409 10408 10408 10409 10408 10408 10408 10408 10407 10407 10408 10408 10408 10409 10409 10409 10409 10409 10410 10410 10410 10410 10409 10408 10408 10408 10407 10407 10407 10406 10405 10405 10403 10402 10401 10399 10398 10396 10394 10392 10390 10389
10393 10394 10393 10394 10394 10394 10394 10394 10394 10393 10393 10393 10392 10392 10392 10391 10390 10391 10392 10391 10391 10392 10393 10393 10393 10394 10394 10395 10396 10397 10397 10398 10398 10400 10401 10401 10402 10403 10405 10405 10404 10403 10403 10403 10403 10402 10402 10402 10402 10401 10401 10401 10401 10401 10402 10402 10402 10403 10403 10403 10403 10403 10403 10403 10403 10403 10403 10403 10402 10402 10402 10401 10401 10400 10400 10399 10398 10397 10396 10395 10393 10392 10390 10388 10387 10385
10386 10386 10385 10386 10386 10386 10386 10386 10386 10385 10385 10385 10384 10384 10384 10383 10383 10383 10384 10384 10384 10385 10386 10387 10387 10388 10387 10387 10388 10389 10390 10391 10391 10392 10394 10395 10395 10397 10399 10399 10398 10397 10397 10397 10397 10396 10395 10395 10395 10395 10395 10395 10395 10395 10395 10396 10396 10397 10397 10397 10397 10397 10397 10397 10398 10398 10397 10397 10397 10396 10396 10395 10395 10395 10394 10393 10393 10392 10391 10390 10388 10387 10385 10383 10382 10381
10378 10378 10378 10378 10378 10378 10378 10378 10377 10377 10377 10377 10376 10376 10376 10376 10376 10377 10377 10377 10378 10378 10378 10380 10380 10381 10381 10381 10380 10380 10383 10384 10384 10385 10387 10388 10388 10390 10392 10392 10392 10391 10391 10390 10390 10390 10389 10388 10388 10388 10388 10388 10388 10388 10389 10390 10390 10390 10390 10390 10390 10391 10391 10391 10392 10392 10392 10391 10391 10390 10390 10390 10390 10389 10389 10388 10388 10387 10386 10385 10383 10382 10380 10379 10378 10377
10368 10370 10370 10370 10369 10369 10369 10369 10369 10369 10368 10368 10368 10368 10368 10367 10368 10369 10370 10370 10370 10371 10372 10372 10373 10373 10374 10374 10373 10373 10376 10377 10377 10378 10380 10382 10382 10383 10384 10385 10384 10384 10384 10384 10383 10383 10383 10382 10382 10381 10381 10382 10382 10382 10383 10383 10383 10384 10384 10384 10384 10385 10385 10385 10385 10385 10385 10385 10385 10385 10385 10385 10384 10384 10383 10383 10382 10382 10381 10380 10378 10377 10376 10375 10373 10372
10360 10361 10362 10361 10361 10360 10360 10360 10360 10360 10360 10359 10360 10360 10360 10359 10360 10361 10361 10362 10362 10363 10364 10365 10365 10366 10367 10367 10366 10367 10369 10370 10370 10371 10373 10375 10375 10375 10377 10377 10377 10377 10377 10377 10377 10377 10377 10375 10375 10375 10375 10375 10375 10376 10377 10377 10377 10377 10378 10378 10378 10378 10378 10378 10379 10379 10379 10380 10380 10380 10380 10380 10379 10379 10378 10378 10377 10377 10375 10375 10373 10372 10371 10370 10369 10368
10350 10351 10352 10352 10353 10352 10350 10351 10352 10352 10352 10351 10351 10351 10351 10351 10352 10352 10352 10352 10353 10355 10355 10357 10358 10358 10359 10360 10359 10359 10362 10363 10363 10363 10364 10367 10368 10368 10369 10370 10370 10369 10369 10369 10370 10370 10370 10369 10368 10368 10368 10369 10369 10370 10370 10371 10371 10372 10372 10372 10372 10372 10372 10372 10373 10373 10373 10374 10374 10374 10374 10374 10374 10374 10373 10373 10373 10372 10371 10370 10369 10368 10367 10365 10365 10363
10342 10342 10342 10343 10343 10342 10341 10342 10342 10343 10343 10342 10342 10342 10342 10343 10343 10343 10342 10343 10345 10345 10347 10348 10349 10350 10352 10352 10352 10352 10354 10356 10355 10355 10357 10358 10358 10359 10361 10362 10362 10362 10362 10362 10362 10363 10363 10362 10362 10361 10362 10363 10363 10364 10365 10365 10365 10365 10365 10365 10366 10366 10366 10367 10367 10367 10368 10368 10368 10368 10369 10369 10369 10368 10368 10368 10368 10367 10366 10365 10364 10363 10362 10361 10360 10359
10332 10332 10333 10333 10333 10333 10332 10332 10333 10333 10333 10333 10333 10333 10333 10335 10335 10333 10333 10335 10336 10337 10338 10340 10341 10343 10344 10344 10344 10345 10346 10347 10347 10348 10349 10350 10350 10350 10353 10355 10355 10353 10353 10354 10355 10355 10355 10355 10354 10355 10355 10356 10357 10358 10358 10358 10359 10359 10359 10360 10360 10360 10360 10360 10361 10362 10362 10363 10363 10363 10363 10363 10363 10363 10363 10363 10363 10362 10362 10360 10360 10358 10357 10357 10355 10355
10321 10322 10323 10323 10324 10323 10323 10323 10323 10323 10324 10324 10324 10324 10324 10325 10325 10325 10325 10326 10327 10328 10330 10331 10333 10333 10334 10335 10337 10337 10337 10338 10339 10340 10340 10340 10341 10342 10344 10346 10346 10346 10345 10347 10348 10348 10348 10347 10347 10348 10349 10350 10350 10351 10352 10352 10353 10353 10353 10353 10353 10354 10354 10355 10355 10356 10357 10357 10357 10358 10358 10358 10358 10358 10358 10358 10358 10358 10357 10356 10355 10353 10353 10352 10351 10350
10309 10311 10312 10313 10313 10313 10313 10313 10314 10315 10317 10317 10315 10315 10315 10315 10315 10315 10316 10317 10319 10320 10322 10323 10323 10324 10325 10327 10328 10328 10327 10328 10330 10332 10332 10332 10333 10333 10335 10337 10338 10338 10338 10338 10340 10341 10340 10340 10340 10341 10342 10343 10344 10345 10346 10347 10347 10347 10348 10348 10348 10348 10348 10349 10350 10350 10351 10352 10352 10352 10353 10353 10353 10353 10353 10353 10353 10353 10352 10351 10350 10349 10348 10347 10347 10346
10297 10298 10300 10302 10303 10303 10303 10303 10305 10307 10308 10309 10308 10308 10307 10305 10305 10305 10307 10308 10310 10312 10313 10314 10314 10315 10317 10319 10320 10319 10318 10320 10322 10323 10323 10324 10325 10325 10326 10328 10330 10330 10330 10331 10332 10333 10333 10333 10333 10334 10336 10337 10337 10338 10340 10340 10341 10342 10342 10342 10342 10342 10342 10343 10343 10345 10345 10346 10347 10347 10347 10348 10348 10348 10348 10348 10348 10348 10347 10347 10345 10344 10343 10342 10342 10341
10285 10286 10288 10289 10290 10291 10292 10292 10293 10295 10298 10299 10300 10299 10297 10296 10295 10295 10296 10298 10300 10303 10305 10304 10304 10305 10308 10310 10310 10310 10309 10311 10312 10313 10314 10316 10317 10317 10317 10319 10322 10323 10322 10323 10324 10325 10326 10326 10326 10327 10328 10330 10331 10332 10333 10333 10335 10335 10336 10336 10336 10337 10337 10337 10338 10338 10340 10340 10341 10342 10342 10342 10342 10343 10343 10343 10343 10343 10342 10342 10340 10340 10338 10338 10337 10337
10272 10273 10275 10276 10277 10278 10279 10280 10281 10283 10285 10287 10288 10288 10287 10286 10285 10285 10285 10287 10291 10294 10295 10293 10294 10297 10299 10300 10300 10300 10301 10302 10302 10303 10305 10308 10308 10308 10307 10310 10313 10315 10315 10315 10316 10317 10318 10319 10320 10320 10322 10323 10324 10325 10327 10327 10328 10329 10330 10330 10330 10330 10331 10332 10332 10333 10334 10335 10335 10335 10336 10337 10337 10337 10338 10338 10338 10338 10337 10337 10336 10335 10334 10333 10333 10332
10259 10260 10262 10263 10264 10265 10266 10267 10268 10270 10271 10273 10275 10276 10276 10277 10277 10275 10275 10277 10281 10284 10284 10283 10284 10287 10290 10290 10291 10292 10292 10292 10292 10293 10296 10299 10298 10298 10298 10303 10305 10305 10306 10308 10308 10309 10310 10312 10313 10314 10315 10316 10317 10318 10320 10321 10322 10323 10323 10323 10324 10325 10325 10326 10327 10327 10328 10329 10330 10330 10330 10331 10332 10332 10332 10333 10333 10333 10332 10332 10331 10330 10329 10328 10328 10327
10247 10247 10248 10250 10250 10252 10253 10255 10255 10257 10257 10259 10260 10262 10263 10265 10266 10266 10267 10268 10270 10272 10272 10272 10275 10278 10281 10282 10283 10283 10282 10281 10282 10284 10287 10289 10288 10287 10290 10294 10296 10296 10298 10300 10302 10302 10302 10303 10306 10308 10309 10310 10311 10312 10313 10314 10315 10317 10317 10318 10318 10318 10319 10320 10321 10322 10323 10323 10324 10324 10325 10325 10326 10327 10327 10327 10328 10327 10327 10327 10326 10325 10325 10324 10323 10323
10235 10235 10236 10236 10236 10238 10240 10242 10243 10243 10244 10245 10247 10248 10250 10252 10255 10257 10258 10259 10260 10260 10262 10262 10265 10268 10270 10273 10274 10274 10272 10271 10272 10275 10277 10278 10278 10278 10282 10285 10287 10287 10289 10293 10294 10294 10294 10295 10298 10300 10302 10303 10304 10305 10307 10308 10309 10310 10310 10311 10312 10312 10313 10315 10315 10316 10317 10318 10318 10318 10319 10320 10320 10321 10322 10322 10322 10322 10322 10322 10321 10321 10320 10319 10318 10318
10224 10224 10224 10223 10223 10225 10226 10228 10229 10230 10230 10231 10233 10235 10236 10239 10242 10245 10247 10248 10249 10250 10251 10252 10254 10257 10259 10262 10264 10265 10263 10263 10263 10264 10265 10267 10268 10269 10273 10277 10278 10278 10280 10284 10286 10287 10287 10288 10290 10293 10295 10297 10297 10298 10300 10301 10302 10303 10304 10305 10305 10306 10307 10308 10310 10310 10311 10312 10312 10313 10313 10314 10315 10315 10316 10317 10317 10317 10317 10316 10316 10316 10315 10315 10313 10313
10212 10213 10212 10211 10211 10212 10213 10213 10214 10215 10216 10218 10220 10221 10223 10226 10230 10232 10235 10236 10238 10239 10240 10241 10243 10245 10248 10252 10254 10255 10255 10255 10254 10253 10254 10257 10259 10260 10263 10267 10269 10270 10272 10275 10278 10279 10280 10282 10283 10285 10287 10288 10290 10292 10293 10295 10296 10297 10298 10299 10300 10300 10301 10303 10304 10305 10305 10306 10307 10308 10308 10309 10310 10310 10311 10311 10311 10311 10311 10311 10311 10311 10310 10310 10309 10308
10200 10200 10200 10199 10199 10200 10200 10200 10200 10200 10201 10203 10205 10207 10210 10213 10216 10220 10222 10225 10226 10228 10229 10230 10231 10234 10237 10240 10243 10245 10246 10246 10245 10243 10244 10247 10250 10252 10254 10258 10260 10262 10264 10267 10269 10271 10273 10275 10276 10278 10280 10281 10283 10285 10287 10288 10289 10290 10292 10293 10293 10294 10295 10297 10298 10299 10299 10300 10302 10302 10303 10303 10304 10305 10305 10306 10306 10306 10305 10305 10305 10305 10305 10305 10304 10303
10186 10186 10187 10187 10187 10188 10188 10188 10188 10187 10187 10188 10190 10193 10195 10199 10202 10206 10208 10211 10214 10216 10217 10218 10220 10223 10226 10229 10232 10235 10236 10236 10235 10235 10235 10237 10240 10242 10245 10249 10252 10253 10257 10258 10261 10263 10265 10267 10268 10270 10272 10274 10275 10277 10279 10281 10283 10284 10285 10286 10287 10288 10289 10290 10292 10293 10293 10295 10296 10297 10297 10298 10299 10300 10300 10300 10300 10300 10300 10300 10300 10300 10300 10300 10300 10299
10173 10173 10174 10175 10175 10175 10175 10175 10175 10175 10174 10175 10176 10178 10181 10184 10186 10190 10194 10197 10201 10203 10205 10206 10209 10211 10215 10218 10221 10224 10225 10226 10226 10226 10226 10227 10230 10233 10237 10240 10242 10245 10249 10251 10253 10255 10258 10260 10261 10263 10265 10267 10268 10270 10272 10274 10277 10278 10278 10280 10281 10282 10283 10285 10286 10287 10288 10289 10290 10291 10292 10293 10293 10294 10295 10295 10295 10295 10295 10295 10295 10295 10295 10295 10295 10294
10160 10161 10161 10162 10162 10163 10163 10163 10163 10162 10162 10161 10163 10164 10167 10170 10172 10175 10179 10183 10187 10190 10193 10195 10197 10200 10203 10206 10210 10213 10215 10216 10216 10216 10216 10218 10221 10225 10230 10231 10234 10237 10241 10243 10245 10247 10250 10252 10254 10256 10258 10260 10261 10263 10265 10267 10270 10271 10272 10273 10275 10276 10277 10278 10280 10282 10282 10283 10285 10285 10287 10287 10288 10288 10289 10289 10290 10289 10289 10289 10290 10290 10290 10290 10290 10289
10147 10148 10149 10150 10150 10150 10150 10150 10150 10150 10150 10150 10150 10151 10153 10155 10158 10161 10165 10169 10174 10178 10180 10183 10185 10188 10191 10195 10200 10202 10205 10206 10206 10207 10207 10209 10213 10217 10221 10223 10225 10228 10232 10235 10236 10239 10242 10245 10247 10248 10250 10252 10254 10257 10258 10260 10262 10263 10264 10266 10268 10270 10271 10272 10273 10275 10277 10278 10279 10280 10281 10282 10283 10283 10283 10283 10284 10284 10283 10284 10284 10285 10285 10285 10284 10285
10134 10135 10136 10137 10138 10138 10138 10138 10138 10138 10139 10138 10138 10139 10140 10142 10145 10148 10152 10156 10161 10165 10168 10171 10173 10177 10180 10185 10188 10191 10193 10195 10196 10197 10198 10201 10205 10208 10212 10215 10217 10220 10223 10226 10229 10231 10234 10236 10238 10240 10242 10245 10247 10250 10252 10253 10255 10257 10258 10260 10262 10263 10265 10266 10268 10269 10270 10272 10273 10275 10275 10276 10277 10277 10278 10278 10278 10278 10278 10278 10279 10279 10280 10279 10279 10280
10123 10124 10125 10126 10126 10126 10126 10126 10126 10127 10128 10128 10128 10128 10129 10131 10133 10136 10140 10144 10149 10153 10156 10160 10163 10166 10170 10173 10177 10180 10182 10185 10186 10188 10190 10193 10196 10200 10203 10206 10208 10211 10215 10218 10221 10223 10226 10228 10231 10233 10235 10238 10240 10242 10244 10247 10248 10250 10252 10254 10255 10256 10258 10260 10262 10263 10265 10266 10268 10268 10270 10270 10271 10272 10272 10272 10272 10273 10273 10273 10273 10274 10274 10274 10274 10274
10112 10113 10114 10115 10115 10115 10115 10115 10116 10116 10117 10117 10117 10118 10120 10121 10123 10126 10129 10133 10137 10141 10145 10149 10153 10156 10160 10163 10166 10168 10171 10173 10176 10178 10181 10184 10187 10190 10194 10197 10200 10203 10206 10210 10213 10215 10218 10221 10223 10225 10228 10231 10233 10235 10237 10239 10241 10243 10245 10247 10248 10249 10252 10254 10255 10257 10258 10260 10262 10263 10264 10265 10265 10265 10266 10267 10267 10267 10268 10268 10268 10268 10268 10268 10269 10270
10101 10102 10103 10104 10105 10105 10105 10106 10106 10106 10107 10108 10108 10108 10110 10111 10114 10116 10119 10123 10126 10130 10135 10138 10142 10146 10149 10151 10154 10157 10160 10163 10166 10169 10171 10175 10178 10181 10185 10188 10191 10195 10198 10201 10204 10206 10210 10213 10215 10218 10220 10223 10226 10229 10231 10232 10234 10236 10238 10240 10242 10243 10246 10248 10249 10251 10253 10254 10255 10257 10258 10258 10259 10260 10260 10261 10261 10262 10262 10263 10263 10263 10263 10263 10264 10265
10092 10092 10093 10094 10095 10095 10096 10096 10096 10097 10098 10099 10100 10100 10101 10103 10105 10108 10110 10113 10116 10120 10125 10129 10132 10135 10138 10141 10143 10146 10150 10153 10156 10160 10163 10166 10169 10172 10175 10179 10183 10186 10190 10193 10196 10198 10201 10205 10208 10211 10213 10216 10220 10222 10223 10225 10227 10230 10231 10233 10236 10239 10240 10241 10242 10245 10247 10248 10250 10251 10252 10253 10253 10254 10255 10255 10256 10256 10257 10257 10257 10258 10258 10258 10259 10260
10083 10083 10084 10085 10085 10086 10087 10087 10088 10088 10089 10090 10091 10092 10093 10096 10097 10099 10101 10104 10108 10112 10116 10120 10123 10126 10128 10130 10133 10136 10140 10143 10147 10151 10153 10156 10160 10163 10166 10170 10174 10178 10181 10185 10187 10190 10193 10197 10200 10203 10206 10210 10213 10215 10216 10218 10220 10222 10225 10227 10230 10231 10232 10233 10236 10238 10241 10242 10243 10245 10246 10247 10247 10248 10249 10250 10250 10250 10251 10252 10252 10252 10253 10253 10254 10255
10075 10075 10075 10076 10076 10077 10078 10078 10079 10080 10081 10081 10083 10084 10086 10088 10090 10091 10093 10096 10100 10104 10108 10111 10114 10116 10118 10120 10123 10127 10131 10135 10138 10141 10145 10147 10151 10155 10158 10161 10165 10169 10173 10175 10178 10181 10185 10189 10192 10195 10199 10203 10206 10208 10210 10211 10213 10216 10218 10220 10223 10225 10226 10228 10230 10233 10235 10236 10238 10239 10240 10241 10242 10242 10243 10243 10244 10245 10245 10246 10247 10247 10248 10248 10250 10250
10066 10066 10066 10067 10068 10069 10070 10070 10071 10072 10073 10074 10075 10076 10078 10080 10082 10084 10086 10089 10093 10096 10100 10103 10105 10106 10108 10111 10115 10119 10122 10125 10129 10132 10135 10138 10142 10146 10150 10153 10156 10160 10164 10167 10170 10173 10178 10181 10185 10188 10193 10196 10199 10201 10202 10205 10207 10210 10211 10213 10216 10218 10220 10222 10225 10226 10228 10230 10231 10233 10234 10235 10236 10236 10237 10237 10238 10239 10240 10240 10241 10242 10243 10244 10245 10246
10059 10059 10058 10059 10060 10061 10061 10063 10063 10065 10065 10066 10068 10069 10071 10073 10075 10076 10079 10082 10085 10088 10091 10094 10096 10098 10100 10104 10108 10111 10113 10116 10120 10123 10127 10130 10133 10137 10141 10145 10149 10152 10156 10160 10163 10166 10171 10175 10178 10182 10186 10189 10191 10193 10195 10198 10201 10203 10205 10206 10209 10211 10213 10216 10218 10220 10223 10225 10226 10226 10228 10229 10230 10230 10231 10232 10233 10233 10234 10235 10236 10237 10238 10239 10240 10242
10051 10051 10051 10051 10052 10053 10054 10055 10056 10057 10058 10060 10061 10062 10064 10066 10068 10070 10072 10075 10078 10080 10083 10086 10088 10091 10094 10097 10100 10103 10105 10108 10111 10115 10118 10122 10125 10129 10133 10137 10141 10145 10148 10152 10156 10160 10164 10168 10172 10176 10179 10182 10184 10186 10188 10191 10194 10196 10198 10200 10203 10205 10207 10209 10211 10215 10216 10218 10220 10221 10222 10223 10223 10224 10225 10226 10227 10228 10228 10230 10231 10232 10233 10235 10236 10237
10044 10044 10044 10045 10045 10046 10047 10048 10050 10051 10051 10053 10054 10056 10057 10059 10061 10063 10066 10068 10070 10073 10075 10078 10081 10085 10088 10090 10092 10095 10098 10101 10104 10107 10111 10114 10118 10121 10126 10130 10133 10137 10141 10145 10148 10152 10156 10161 10165 10169 10172 10175 10177 10180 10181 10185 10187 10190 10191 10194 10196 10199 10201 10203 10206 10208 10210 10211 10213 10215 10216 10217 10218 10219 10220 10221 10221 10222 10223 10225 10226 10227 10229 10230 10231 10233
10037 10037 10037 10038 10039 10040 10041 10042 10043 10044 10045 10046 10048 10050 10051 10053 10055 10057 10060 10061 10064 10066 10069 10072 10076 10078 10081 10083 10085 10088 10090 10093 10096 10100 10103 10107 10111 10115 10118 10121 10125 10130 10133 10137 10141 10145 10149 10153 10158 10161 10165 10168 10171 10173 10175 10177 10180 10183 10186 10188 10190 10193 10196 10198 10200 10202 10204 10205 10207 10209 10210 10211 10212 10213 10215 10215 10216 10217 10218 10220 10221 10223 10225 10226 10228 10229
10031 10031 10031 10032 10033 10033 10035 10036 10037 10038 10039 10040 10042 10043 10045 10047 10049 10051 10053 10056 10058 10060 10063 10066 10070 10072 10074 10076 10078 10080 10083 10086 10090 10093 10096 10100 10104 10108 10111 10115 10118 10122 10126 10130 10134 10138 10142 10146 10150 10154 10157 10160 10163 10166 10168 10170 10173 10176 10179 10181 10185 10188 10190 10192 10193 10195 10198 10200 10201 10203 10205 10206 10206 10208 10209 10210 10211 10212 10213 10215 10216 10218 10220 10221 10223 10225